This is the latest recevied weather packets stored in our database for station/object WX9WTF. If no packets are shown the sender has not sent any weather packets the latest 1 day(s).
| Time | Temp. | Humidity | Pressure | Rain* | Wind** | Luminosity | Snow |
|---|---|---|---|---|---|---|---|
| 1778022873 | 9.44° C | 94% | 1012.7 hPa | 0 mm | 0 m/s | 75 W/m² | - |
| 1778022571 | 9.44° C | 94% | 1012.7 hPa | 0 mm | 0 m/s | 61 W/m² | - |
| 1778022269 | 9.44° C | 93% | 1012.6 hPa | 0 mm | 0 m/s | 55 W/m² | - |
| 1778021965 | 9.44° C | 93% | 1012.9 hPa | 0 mm | 0 m/s | 42 W/m² | - |
| 1778021662 | 10° C | 93% | 1012.7 hPa | 0 mm | 0 m/s | 47 W/m² | - |
| 1778021357 | 10° C | 92% | 1012.6 hPa | 0 mm | 0 m/s | 64 W/m² | - |
| 1778021055 | 10° C | 92% | 1012.2 hPa | 0 mm | 0 m/s | 75 W/m² | - |
| 1778020752 | 10° C | 92% | 1012.4 hPa | 0 mm | 0 m/s | 78 W/m² | - |
| 1778020449 | 10° C | 92% | 1012.5 hPa | 0 mm | 0 m/s | 83 W/m² | - |
| 1778020145 | 9.44° C | 92% | 1012.4 hPa | 0 mm | 0 m/s | 81 W/m² | - |
| 1778019841 | 9.44° C | 92% | 1012.7 hPa | 0 mm | 0 m/s | 73 W/m² | - |
| 1778019538 | 10° C | 93% | 1012.5 hPa | 0 mm | 0 m/s | 105 W/m² | - |
| 1778019235 | 10° C | 93% | 1012.7 hPa | 0 mm | 0 m/s | 108 W/m² | - |
| 1778018932 | 10° C | 95% | 1012.6 hPa | 0 mm | 0 m/s | 127 W/m² | - |
| 1778018629 | 9.44° C | 95% | 1012.4 hPa | 0 mm | 0 m/s | 178 W/m² | - |
| 1778018327 | 9.44° C | 95% | 1012.5 hPa | 0 mm | 0.45 m/s, 186° | 210 W/m² | - |
| 1778018025 | 9.44° C | 96% | 1012.7 hPa | 0 mm | 0 m/s | 187 W/m² | - |
| 1778017723 | 9.44° C | 96% | 1012.8 hPa | 0 mm | 0 m/s | 196 W/m² | - |
| 1778017420 | 9.44° C | 96% | 1013.1 hPa | 0 mm | 0.89 m/s, 256° | 118 W/m² | - |
| 1778017117 | 8.89° C | 97% | 1012.6 hPa | 0 mm | 0.45 m/s, 22° | 316 W/m² | - |
| 1778016815 | 8.89° C | 97% | 1012.3 hPa | 0 mm | 0.89 m/s, 327° | 267 W/m² | - |
| 1778016510 | 8.89° C | 98% | 1012.4 hPa | 0 mm | 0 m/s | 180 W/m² | - |
| 1778016208 | 8.89° C | 98% | 1012.7 hPa | 0 mm | 0.45 m/s, 64° | 154 W/m² | - |
| 1778015903 | 8.33° C | 99% | 1012.6 hPa | 0 mm | 0 m/s | 171 W/m² | - |
| 1778015602 | 8.89° C | 99% | 1012.6 hPa | 0 mm | 0 m/s | 215 W/m² | - |
* Rain latest hour (hover to see other rain measurements)
** Current wind speed in m/s (hover to see current wind gust speed)